Regional Weather Roundup
Issued by NWS

Home | Current Version | Previous Version | Text Only | Print | Product List | Glossary Off
Versions: 1 2 3 4 5 6 7 8 9 10 11 12 13 14 15 16 17 18 19 20 21 22 23 24 25 26 27 28 29 30 31 32 33 34 35 36 37 38 39 40 41 42 43 44 45 46 47 48 49 50

000
ASUS43 KMKX 020710
RWRWI

WISCONSIN REGIONAL WEATHER ROUNDUP
NATIONAL WEATHER SERVICE MILWAUKEE/SULLIVAN WI
200 AM CDT TUE JUN 02 2015

NOTE: "FAIR" INDICATES FEW OR NO CLOUDS BELOW 12,000 FEET WITH NO
SIGNIFICANT WEATHER AND/OR OBSTRUCTIONS TO VISIBILITY.

WIZ001-002-006>008-014>016-023>028-020800-
NORTHWEST WISCONSIN

CITY           SKY/WX    TMP DP  RH WIND       PRES   REMARKS
SUPERIOR ARPT  CLOUDY    42  34  74 CALM      30.12F
ASHLAND        NOT AVBL
HAYWARD        PTCLDY    54  38  54 SE10      30.14S
SIREN          PTCLDY    51  44  76 SE5       30.11F
CUMBERLAND     PTCLDY    50  41  71 SE7       30.13F
RICE LAKE      PTCLDY    51  42  70 E6        30.16S
CHETEK         PTCLDY    50  41  72 E3        30.16S
LADYSMITH      CLEAR     48  40  71 SE3       30.18S
EAU CLAIRE     NOT AVBL
MENOMONIE      CLEAR     52  41  65 SE6       30.14F
NEW RICHMOND   PTCLDY    53  41  64 SE5       30.12F
OSCEOLA        PTCLDY    54  44  67 SE7       30.14F
$$

WIZ003>005-009-010-017-018-020800-
NORTH CENTRAL WISCONSIN

CITY           SKY/WX    TMP DP  RH WIND       PRES   REMARKS
MANITOWISH WTR CLEAR     47  38  72 S7        30.18F
ARBOR VITAE    CLEAR     47  38  71 CALM      30.19F
WOODRUFF       CLEAR     47  38  71 CALM      30.19F
RHINELANDER    CLEAR     39  35  86 CALM      30.20S
EAGLE RIVER    CLEAR     37  33  82 CALM      30.20S
LAND O LAKES   CLEAR     38  37  95 CALM      30.21S
PHILLIPS       PTCLDY    46  39  76 E5        30.17F
TOMAHAWK       CLEAR     39  36  89 CALM      30.20S
MEDFORD        CLEAR     45  39  78 SE5       30.18F
MERRILL        CLEAR     37  36  96 N3        30.21S
$$

WIZ029-030-035-036-043>047-020800-
CENTRAL WISCONSIN

CITY           SKY/WX    TMP DP  RH WIND       PRES   REMARKS
WAUSAU         CLEAR     46  39  76 CALM      30.18F
MOSINEE        CLEAR     45  39  81 E5        30.20S
MARSHFIELD     CLEAR     49  36  61 E3        30.19R
STEVENS POINT  CLEAR     41  38  91 CALM      30.20S
WAUPACA        CLEAR     44  42  92 CALM      30.20S
WAUTOMA        NOT AVBL
WISC RAPIDS    CLEAR     42  35  76 CALM      30.20S
CAMP DOUGLAS   CLEAR     38  38 100 E3        30.18R
$$

WIZ011>013-019>022-031-037>040-048>050-020800-
NORTHEAST WISCONSIN

CITY           SKY/WX    TMP DP  RH WIND       PRES   REMARKS
ANTIGO         CLEAR     42  39  88 CALM      30.20S
SHAWANO        CLEAR     45  40  85 CALM      30.21S
OCONTO         CLEAR     37  37 100 CALM      30.20S
STURGEON BAY   CLEAR     46  30  53 E7        30.22S
GREEN BAY      CLEAR     43  41  93 CALM      30.20S
MANITOWOC      NOT AVBL
APPLETON       CLEAR     50  32  50 CALM      30.20F
CLINTONVILLE   CLEAR     43  43 100 CALM      30.21S
OSHKOSH        CLEAR     46  40  79 CALM      30.19F
$$

WIZ032>034-041-042-053>061-020800-
SOUTHWEST WISCONSIN

CITY           SKY/WX    TMP DP  RH WIND       PRES   REMARKS
LA CROSSE      CLEAR     54  38  54 SE5       30.16R
SPARTA         CLEAR     39  38  96 CALM      30.18S
VIROQUA        CLEAR     49  35  56 SE8       30.17S
BOSCOBEL       CLEAR     44  41  89 CALM      30.18S
PRAIRIE DU CHI CLEAR     51  36  54 CALM      30.16S
PLATTEVILLE    CLEAR     50  39  66 E9        30.17S
$$

WIZ056-057-062-063-064-067-068-020800-
SOUTH CENTRAL WISCONSIN

CITY           SKY/WX    TMP DP  RH WIND       PRES   REMARKS
REEDSBURG      CLEAR     44  39  85 CALM      30.18R
BARABOO/DELLS  CLEAR     44  33  67 CALM      30.18S
LONE ROCK      NOT AVBL
MINERAL POINT  CLEAR     50  36  57 SE8       30.18R
MADISON        CLEAR     46  34  62 CALM      30.19S
MIDDLETON      CLEAR     47  36  66 CALM      30.20S
WATERTOWN      CLEAR     43  38  82 CALM      30.19F
MONROE         CLEAR     45  37  76 E6        30.18S
JANESVILLE     CLEAR     45  37  76 CALM      30.18S
$$

WIZ051-052-058>065-066-070>072-020800-
SOUTHEAST WISCONSIN

CITY           SKY/WX    TMP DP  RH WIND       PRES   REMARKS
MILWAUKEE      PTCLDY    44  33  65 CALM      30.19F
WAUKESHA       CLEAR     39  34  81 CALM      30.20F
MILWAUKEE/TIMM CLEAR     41  34  75 CALM      30.21F
RACINE         CLEAR     43  37  79 N5        30.20F
BURLINGTON     CLEAR     37  36  94 CALM      30.19F
KENOSHA        CLEAR     44  36  73 N5        30.19F
FOND DU LAC    CLEAR     41  39  93 S3        30.19F
SHEBOYGAN      CLEAR     39  38  96 CALM      30.20S
WEST BEND      CLEAR     41  36  81 CALM      30.20S
JUNEAU         CLEAR     45  37  75 E5        30.20F
$$

LSZ147-162-020800-
LAKE SUPERIOR

STATION/POSITION TIME  TEMP    WIND        PRES    WAVE
                       AIR SEA DIR/SP/G            HT/PER
                 (UTC) (F)     (DEG/KT/KT) (MB)    (FT/S)
W MID LAKE BUOY  0550   40 37  180/  8/ 10   N/A     1/ 3
DEVILS ISLAND    0600   42      10/  2/  2   N/A
PORT WING        0500   42      90/  2/  5   N/A
SAXON HARBOR     0600   40        CALM       N/A
$$

LMZ867-665-643>646-020800-
LAKE MICHIGAN

STATION/POSITION TIME  TEMP    WIND        PRES    WAVE
                       AIR SEA DIR/SP/G            HT/PER
                 (UTC) (F)     (DEG/KT/KT) (MB)    (FT/S)
CHAMBERS ISLAND  0600   41      CALM  /  1   N/A
N MID LAKE BUOY  0550   40 37   70/  4/  6   N/A     0
NORTHPORT PIER   0600   45     120/  2/  3   N/A
SISTER BAY       0618   42        CALM       N/A
ALGOMA LAKESHORE 0609             CALM       N/A
KEWAUNEE LAKESHO 0600   43                   N/A
SHEBOYGAN LAKESH 0600   50     350/  5/  6   N/A
PORT WASHINGTON  0600   48     290/  3/  4   N/A
ATWATER BUOY     0600   47     320/  4/  4   N/A
MILWAUKEE LAKESH 0600   49     340/  4/  4   N/A
S MID LAKE BUOY  0550   42 38   40/  8/  8   N/A     1/ 4
KENOSHA   LAKESH 0600   47     320/  4/  5   N/A
$$

TC  - TEMPERATURE IN CELSIUS
VSB - VISIBILITY IN STATUTE MILES
WCI - WIND CHILL INDEX
HX  - HEAT INDEX




USA.gov is the U.S. government's official web portal to all federal, state and local government web resources and services.